Regional Weather Roundup
Issued by NWS Cleveland, OH

Home | Current Version | Previous Version | Graphics & Text | Print | Product List | Glossary On
Versions: 1 2 3 4 5 6 7 8 9 10 11 12 13 14 15 16 17 18 19 20 21 22 23 24 25 26 27 28 29 30 31 32 33 34 35 36 37 38 39 40 41 42 43 44 45 46 47 48 49 50
000
ASUS41 KCLE 271600
RWRCLE
OHIO REGIONAL WEATHER ROUNDUP
NATIONAL WEATHER SERVICE WILMINGTON, OH
1200 PM EDT FRI MAY 27 2016

NOTE: "FAIR" INDICATES FEW OR NO CLOUDS BELOW 12,000 FEET WITH NO
SIGNIFICANT WEATHER AND/OR OBSTRUCTIONS TO VISIBILITY.

OHZ001>008-015>018-024>027-034-035-043-044-271700-
   NORTHWEST OHIO

CITY           SKY/WX    TMP DP  RH WIND       PRES   REMARKS
DEFIANCE       FAIR      79  62  56 VRB5      30.00R
FINDLAY        FAIR      81  60  48 SW7       30.00S
TOLEDO EXPRESS FAIR      79  62  56 S5        29.99S
TOLEDO EXEC    FAIR      80  62  54 SW12      30.01R
LIMA           FAIR      78  62  57 S7        30.02R
$$

OHZ009>014-019>023-028>033-038-089-271700-
   NORTHEAST OHIO

CITY           SKY/WX    TMP DP  RH WIND       PRES   REMARKS
CLE-HOPKINS    FAIR      80  61  52 S12       30.03S
CLE-LAKEFRONT  FAIR      73  64  73 NW7       30.00S
CUY CO. ARPT   MOSUNNY   81  63  54 SW9       30.03R
LORAIN-ELYRIA  FAIR      78  62  57 S9        30.02S
ASHTABULA      FAIR      79  65  62 SW8       30.03S
AKRON-CANTON   PTSUNNY   78  63  59 S8        30.05S
WOOSTER        NOT AVBL
MANSFIELD      FAIR      78  61  55 VRB6      30.05S
YOUNGSTOWN     PTSUNNY   79  63  57 SW12      30.05R
$$

OHZ042-051>053-060>062-070>072-077>081-271700-
  SOUTHWEST OHIO

CITY           SKY/WX    TMP DP  RH WIND       PRES   REMARKS
CINC-COVINGTON PTSUNNY   81  66  60 S6        30.05S
CINC-LUNKEN    FAIR      78  68  71 S7        30.04F
HAMILTON       FAIR      83  66  56 SW5       30.04S
DAYTON         NOT AVBL
WRIGHT-PAT AFB NOT AVBL
DAYTON GENERAL FAIR      79  64  60 VRB5      30.04R
WILMINGTON     PTSUNNY   80  66  62 S8        30.05R
$$

OHZ036-037-039>041-045>050-054>059-063>069-073>076-082>088-271700-
  CENTRAL AND SOUTHEAST OHIO

CITY           SKY/WX    TMP DP  RH WIND       PRES   REMARKS
COLUMBUS       FAIR      78  63  59 SW8       30.04S
OSU AIRPORT    NOT AVBL
BOLTON FIELD   SUNNY     79  66  65 SW7       30.05S
RICKENBACK AFB NOT AVBL
NEWARK         FAIR      82  62  50 SW10      30.05S
MARION         FAIR      79  61  53 VRB3      30.04F
LANCASTER      FAIR      81  65  58 SW8       30.06S
ZANESVILLE     FAIR      82  65  56 SW9       30.06S
NEW PHILLY     FAIR      83  61  47 SW9       30.05S
$$




USA.gov is the U.S. government's official web portal to all federal, state and local government web resources and services.